Location: La Comballaz
(46.3780°N, 7.0817°E)
Time: 09:35:33
(UTC+00:00)

X-37B - Visible Passes

Search period start: 04 March 2021 00:00
Search period end: 14 March 2021 00:00
Orbit: 383 x 391 km, 45.0° (Epoch: 27 February)

Date Brightness Start Highest point End Pass type
(mag) Time Alt. Az. Time Alt. Az. Time Alt. Az.
11 Mar 2.7 19:17:05 10° SSW 19:18:23 18° S 19:18:23 18° S visible
12 Mar 2.6 18:19:33 10° S 18:21:34 16° SSE 18:23:05 12° ESE visible
12 Mar 3.3 19:54:38 10° WSW 19:55:23 16° WSW 19:55:23 16° WSW visible
13 Mar 1.4 18:56:30 10° SW 18:59:29 35° SSE 18:59:58 33° SE visible
